Marshfield, WI

10:49 AM CDT on May 24, 2017 (GMT -0500)
Marshfield Municipal

Weather History for KMFI - September, 2012

Change the Weather History Date:

Tuesday, September 4, 2012

  Actual Average Record
Temperature  
Mean Temperature 74 °F -  
Max Temperature 90 °F 76 °F 92 °F (1925)
Min Temperature 60 °F 51 °F 31 °F (1974)
Cooling Degree Days 10    
Growing Degree Days 24 (Base 50)    
Moisture  
Dew Point 63 °F    
Average Humidity 87    
Maximum Humidity 100    
Minimum Humidity 38    
Precipitation  
Precipitation 0.08 in - - ()
Sea Level Pressure  
Sea Level Pressure 29.88 in    
Wind  
Wind Speed 2 mph (SW)    
Max Wind Speed 30 mph    
Max Gust Speed 54 mph    
Visibility 4 miles    
Events Fog , Rain    
Averages and records for this station are not official NWS values.
T = Trace of Precipitation, MM = Missing Value Source: NWS Daily Summary

Daily Weather History Graph

Daily Weather History Graph

Search for Another Location

Airport or City:

Trip Planner

Search our weather history database for the weather conditions in past years. The results will help you decide how hot, cold, wet, or windy it might be!

Date:

Astronomy

Sep. 04, 2012 Rise Set
Actual Time 6:27 AM CDT 7:31 PM CDT
Civil Twilight 5:57 AM CDT 8:00 PM CDT
Nautical Twilight 5:21 AM CDT 8:36 PM CDT
Astronomical Twilight 4:44 AM CDT 9:13 PM CDT
Moon 9:10 PM CDT (9/4) 10:47 AM CDT (9/4)
Length of Visible Light 14h 03m
Length of Day
13h 03m
Waning Gibbous, 83% of the Moon is Illuminated
Sep 4
Waning Gibbous
Sep 8
Last Quarter
Sep 15
New
Sep 22
First Quarter
Sep 29
Full

Hourly Weather History & Observations

Time (CDT) Temp. Heat Index Dew Point Humidity Pressure Visibility Wind Dir Wind Speed Gust Speed Precip Events Conditions
12:11 AM 66.2 °F - 66.2 °F 100% 29.91 in 2.5 mi Calm Calm - N/A   Partly Cloudy
12:24 AM 66.2 °F - 64.4 °F 94% 29.91 in 1.2 mi Calm Calm - N/A   Clear
12:31 AM 64.4 °F - 62.6 °F 94% 29.91 in 0.5 mi Calm Calm - N/A Fog Fog
12:48 AM 64.4 °F - 62.6 °F 94% 29.91 in 1.2 mi Calm Calm - N/A   Scattered Clouds
12:52 AM 64.4 °F - 62.6 °F 94% 29.91 in 3.0 mi SW 3.5 mph - N/A   Scattered Clouds
12:54 AM 64.9 °F - 64.0 °F 97% 29.91 in 2.0 mi SW 3.5 mph - N/A   Mostly Cloudy
12:56 AM 64.4 °F - 64.4 °F 100% 29.91 in 1.0 mi SW 3.5 mph - N/A   Mostly Cloudy
1:03 AM 64.4 °F - 64.4 °F 100% 29.92 in 0.5 mi Calm Calm - N/A Fog Fog
1:08 AM 64.4 °F - 62.6 °F 94% 29.91 in 1.2 mi Calm Calm - N/A   Mostly Cloudy
1:11 AM 64.4 °F - 64.4 °F 100% 29.91 in 4.0 mi Calm Calm - N/A   Mostly Cloudy
1:33 AM 64.4 °F - 64.4 °F 100% 29.92 in 2.5 mi Calm Calm - N/A   Partly Cloudy
1:43 AM 66.2 °F - 64.4 °F 94% 29.92 in 6.0 mi Calm Calm - N/A   Clear
1:54 AM 66.0 °F - 64.0 °F 93% 29.91 in 6.0 mi Calm Calm - N/A   Clear
2:02 AM 66.2 °F - 64.4 °F 94% 29.92 in 1.0 mi Calm Calm - N/A   Clear
2:09 AM 64.4 °F - 62.6 °F 94% 29.91 in 0.5 mi Calm Calm - N/A Fog Fog
2:19 AM 64.4 °F - 62.6 °F 94% 29.91 in 1.0 mi Calm Calm - N/A   Clear
2:32 AM 62.6 °F - 62.6 °F 100% 29.92 in 0.8 mi WSW 3.5 mph - N/A   Clear
2:36 AM 62.6 °F - 62.6 °F 100% 29.92 in 1.5 mi Calm Calm - N/A   Clear
2:40 AM 62.6 °F - 62.6 °F 100% 29.92 in 3.0 mi Calm Calm - N/A   Clear
2:54 AM 64.0 °F - 63.0 °F 96% 29.90 in 4.0 mi Calm Calm - N/A   Clear
3:00 AM 62.6 °F - 62.6 °F 100% 29.91 in 0.8 mi NW 4.6 mph - N/A   Mist
3:35 AM 62.6 °F - 62.6 °F 100% 29.90 in 1.0 mi West 3.5 mph - N/A   Clear
3:44 AM 62.6 °F - 62.6 °F 100% 29.90 in 0.8 mi Calm Calm - N/A   Clear
3:47 AM 62.6 °F - 62.6 °F 100% 29.90 in 1.2 mi Calm Calm - N/A   Clear
3:54 AM 64.0 °F - 63.0 °F 96% 29.88 in 2.5 mi Calm Calm - N/A   Clear
4:06 AM 64.4 °F - 62.6 °F 94% 29.91 in 1.0 mi Calm Calm - N/A   Clear
4:18 AM 62.6 °F - 62.6 °F 100% 29.90 in 0.8 mi Calm Calm - N/A   Mist
4:28 AM 62.6 °F - 62.6 °F 100% 29.90 in 0.8 mi Calm Calm - N/A   Mist
4:36 AM 62.6 °F - 60.8 °F 94% 29.90 in 0.5 mi Calm Calm - N/A Fog Fog
4:54 AM 62.1 °F - 61.0 °F 96% 29.89 in 0.2 mi Calm Calm - N/A Fog Fog
5:54 AM 61.0 °F - 60.1 °F 97% 29.90 in 0.2 mi Calm Calm - N/A Fog Fog
6:54 AM 60.1 °F - 59.0 °F 96% 29.89 in 0.2 mi SE 3.5 mph - N/A Fog Fog
7:54 AM 64.0 °F - 64.0 °F 100% 29.90 in 0.8 mi Calm Calm - N/A   Overcast
7:57 AM 64.4 °F - 64.4 °F 100% 29.90 in 1.2 mi Calm Calm - N/A   Overcast
8:08 AM 64.4 °F - 64.4 °F 100% 29.91 in 0.8 mi SW 3.5 mph - N/A   Overcast
8:32 AM 66.2 °F - 66.2 °F 100% 29.90 in 1.2 mi South 3.5 mph - N/A   Overcast
8:35 AM 66.2 °F - 66.2 °F 100% 29.90 in 3.0 mi South 3.5 mph - N/A   Overcast
8:54 AM 68.0 °F - 66.9 °F 96% 29.89 in 7.0 mi South 3.5 mph - N/A   Overcast
9:14 AM 69.8 °F - 68.0 °F 94% 29.89 in 8.0 mi SE 6.9 mph - N/A   Overcast
9:40 AM 73.4 °F - 68.0 °F 83% 29.91 in 10.0 mi Calm Calm - N/A   Mostly Cloudy
9:54 AM 75.0 °F - 69.1 °F 82% 29.90 in 10.0 mi SSE 5.8 mph - N/A   Scattered Clouds
10:54 AM 80.1 °F 82.9 °F 69.1 °F 69% 29.89 in 10.0 mi South 5.8 mph - N/A   Clear
11:54 AM 82.0 °F 84.5 °F 66.9 °F 60% 29.88 in 10.0 mi Variable 5.8 mph - N/A   Scattered Clouds
12:54 PM 84.9 °F 87.1 °F 66.0 °F 53% 29.86 in 10.0 mi SW 9.2 mph - N/A   Scattered Clouds
1:54 PM 86.0 °F 87.6 °F 64.9 °F 49% 29.84 in 10.0 mi Variable 3.5 mph - N/A   Clear
2:54 PM 88.0 °F 88.7 °F 63.0 °F 43% 29.81 in 10.0 mi Variable 6.9 mph - N/A   Clear
3:54 PM 88.0 °F 87.9 °F 61.0 °F 40% 29.80 in 10.0 mi Calm Calm - N/A   Clear
4:54 PM 89.1 °F 88.8 °F 60.1 °F 38% 29.78 in 10.0 mi WSW 8.1 mph - N/A   Clear
5:54 PM 84.0 °F 84.0 °F 60.1 °F 44% 29.78 in 10.0 mi South 6.9 mph - N/A   Clear
6:36 PM 69.8 °F - 53.6 °F 56% 29.87 in 3.0 mi NW 20.7 mph 50.6 mph 0.00 in Rain Light Rain
6:49 PM 66.2 °F - 55.4 °F 68% 29.86 in 2.5 mi NW 29.9 mph 54.1 mph 0.00 in Rain Light Rain
6:54 PM 68.0 °F - 55.0 °F 63% 29.89 in 1.8 mi West 20.7 mph 51.8 mph 0.06 in Rain Heavy Rain
7:02 PM 66.2 °F - 57.2 °F 73% 29.86 in 3.0 mi SW 10.4 mph 28.8 mph 0.02 in Rain Rain
7:54 PM 66.0 °F - 61.0 °F 84% 29.79 in 10.0 mi ENE 4.6 mph - 0.02 in   Clear
8:54 PM 64.9 °F - 59.0 °F 81% 29.80 in 10.0 mi ESE 5.8 mph - N/A   Clear
9:54 PM 64.0 °F - 57.9 °F 80% 29.81 in 10.0 mi Calm Calm - N/A   Clear
10:54 PM 60.1 °F - 57.9 °F 93% 29.81 in 10.0 mi Calm Calm - N/A   Clear
11:54 PM 60.1 °F - 57.0 °F 90% 29.82 in 10.0 mi West 3.5 mph - N/A   Clear